Find Starlink 36303

NORAD ID: 68969 Int'l Des: 2026-099 Owner: SPXS Country: US Constellation: starlink operational
LEOCIRCULAR

Live Position

Loading 3D Globe...

About Starlink 36303

Description loading...

Upcoming Passes

Passes for default location (London). Set your location on the main map for personalized predictions.

Altitude History

Loading altitude history...

Two-Line Element Set

1 68969C 26099U 26125.80118056 -.01460300 00000+0 -22813-2 0 1253
2 68969 53.1618 7.4081 0000266 117.1914 283.7246 16.04037508 19
Epoch: May 5, 2026 • Age: 30 hours

Current Status

Altitude 268.8 km
Velocity 7.75 km/s
Sub-Earth Point 32.94°N, 159.43°W
Launch Date May 1, 2026
Age 4 days
Type internet

Technical Details

Classification Payload
Mass 575.00 kg
Dry Mass 530.00 kg
Total Mass 575.00 kg
Length 0.30 m
Diameter 4.10 m
Span 29.00 m
Shape Box + pan
Manufacturer SPXS
Bus Type Starlink V2MO
Phase Status In Orbit
Owner/State SPXS/US

Most Searched